CAPE
0 0 0 0 0 0 0 0 0 0 0 0 0 0 0 0 2 14 25 12 7 4 6 10 16 18 13
0 0 0 0 0 0 0 0 0 0 0 0 0 0 0 0 0 0 0 2 5 4 8 13 9 12 18
0 0 0 0 0 0 0 0 0 0 0 0 0 0 0 0 0 0 1 3 6 13 15 10 6 6 6
0 0 0 0 0 0 0 0 0 0 0 0 0 0 0 0 0 0 1 9 12 4 3 4 6 6 16
0 0 0 0 0 0 0 0 0 0 0 0 0 0 0 0 0 0 0 0 1 2 3 5 6 8 8
0 0 0 0 0 0 0 0 3 0 0 0 0 0 0 0 0 0 0 0 1 1 0 0 1 6 8
1 0 0 0 0 0 0 11 9 0 3 2 0 0 0 0 0 0 0 0 0 0 0 2 2 2 6
0 0 0 0 0 0 4 3 2 1 0 1 0 0 0 0 0 0 0 0 0 0 1 4 5 13 3
0 1 4 10 13 10 3 7 1 0 0 0 0 0 0 0 0 0 0 0 0 0 1 2 2 2 4
0 0 0 0 0 0 0 2 1 1 0 0 2 0 0 0 0 0 0 0 0 0 0 1 3 4 8
0 0 0 0 0 0 0 0 1 1 3 4 0 0 0 0 0 0 0 0 0 0 0 0 2 5 3
0 0 0 0 0 0 0 1 1 1 0 1 0 0 0 1 1 0 0 0 0 0 0 1 2 2 4
0 1 1 1 1 1 1 1 1 0 0 1 0 0 0 0 0 1 1 0 0 0 0 0 0 1 2
1 1 0 0 0 0 0 2 0 0 0 0 0 0 0 0 0 0 0 1 0 0 0 0 0 0 2
0 0 0 0 0 0 0 1 0 1 0 0 0 0 0 0 0 0 0 0 0 0 0 0 0 0 1
0 0 0 0 0 0 1 0 1 1 0 0 0 0 0 0 0 0 0 0 0 0 0 0 0 0 1
0 0 0 0 1 0 1 0 0 1 0 0 0 0 0 0 0 0 0 0 0 0 0 0 0 0 1
CIN
0 0 0 0 0 0 0 0 0 0 0 0 0 0 0 0 0 -1 -1 -1 -1 -1 -1 -1 -1 -1 -1
0 0 0 0 0 0 0 0 0 0 0 0 0 0 0 0 0 0 0 0 0 0 0 0 -1 -1 0
0 0 0 0 0 0 0 0 0 0 0 0 0 0 0 0 0 0 0 0 0 0 -1 -1 -1 0 0
0 0 0 0 0 0 0 0 0 0 0 0 0 0 0 0 0 0 0 0 -1 -1 -1 0 0 0 -1
0 0 0 0 0 0 0 0 0 0 0 0 0 0 0 0 0 0 0 0 0 0 -1 0 0 -1 -1
0 0 0 0 0 0 0 0 0 0 0 0 0 0 0 0 0 0 0 0 0 0 0 0 0 0 0
-1 0 0 0 0 0 -1 0 -1 -1 -2 0 -1 0 0 0 0 0 0 0 0 0 -1 -1 0 0 -1
0 0 0 0 0 -4 -5 -2 0 0 0 0 -1 0 0 0 0 0 0 0 0 0 -1 0 -1 -1 -1
0 -1 -2 -2 -1 -1 -1 0 0 0 -1 0 0 -1 0 0 0 0 0 0 0 0 0 0 -1 -1 0
0 0 0 0 0 -3 0 0 0 0 -1 -1 -1 0 0 0 0 0 0 0 0 0 0 -1 0 0 0
0 0 0 0 0 0 0 0 0 -1 0 -6 0 0 0 0 0 0 0 0 0 0 0 0 0 0 0
0 0 0 0 0 0 0 0 0 0 0 0 0 0 0 0 0 0 0 0 0 0 0 0 0 0 0
0 0 0 0 0 0 0 0 0 0 0 0 0 0 0 0 0 0 0 0 0 0 0 0 0 0 0
0 0 0 0 -1 0 -2 -1 0 0 0 0 0 0 0 0 0 0 0 0 0 0 0 0 0 0 0
0 0 -1 0 0 0 0 0 0 0 0 0 0 0 0 0 0 0 0 0 0 0 0 0 0 0 0
0 0 0 0 -1 -1 0 0 0 0 0 0 0 0 0 0 0 0 0 0 0 0 0 0 0 0 0
-2 0 0 -2 0 0 0 0 0 0 0 0 0 0 0 0 0 0 0 0 0 0 0 0 0 0 0
Wind_Speed
37 38 38 39 39 38 37 38 39 41 42 43 44 45 45 44 44 44 44 46 47 47 47 47 47 48 49
39 38 39 39 39 37 36 36 37 39 41 41 42 42 44 45 45 45 47 46 47 47 46 47 49 50 50
41 39 39 38 38 37 37 37 37 39 40 40 39 41 44 43 43 44 44 45 44 46 48 50 50 50 49
40 40 38 38 38 40 41 38 39 39 39 37 38 42 42 42 42 42 42 43 46 49 50 50 49 49 49
40 40 41 42 42 40 42 40 40 38 38 37 40 41 40 40 40 40 42 45 46 45 45 45 45 46 47
39 41 41 41 40 40 40 43 45 36 38 42 38 40 39 38 38 39 43 41 40 42 45 45 45 45 46
39 39 40 39 38 39 39 39 41 39 38 42 38 39 38 35 36 39 37 36 39 42 44 45 45 44 44
34 34 33 33 33 34 37 37 36 36 34 39 37 38 36 36 36 33 32 35 39 42 45 44 43 44 46
33 32 32 32 32 34 35 38 40 37 33 33 33 36 36 34 30 29 32 36 39 42 44 42 42 44 44
32 32 31 30 30 31 33 35 36 36 29 28 31 32 34 29 32 33 30 36 39 43 41 41 42 41 42
34 34 33 32 31 30 29 30 30 29 27 25 26 29 28 36 35 35 35 37 39 38 37 40 42 42 43
34 34 33 33 31 30 30 28 24 24 24 21 23 26 30 34 37 39 38 37 36 35 37 41 41 43 43
33 33 32 31 30 30 28 29 26 23 21 18 19 23 26 29 34 38 41 38 34 32 38 39 42 41 41
31 31 30 30 30 29 30 30 27 25 23 19 17 21 25 26 30 35 36 33 37 36 38 41 39 36 33
29 30 29 29 29 28 28 27 26 26 26 24 20 19 21 24 28 31 33 35 35 37 41 40 34 29 28
28 29 29 28 28 27 26 25 26 24 25 24 24 25 26 25 18 26 33 36 37 37 38 36 32 28 26
27 28 27 26 28 27 26 26 27 26 25 23 23 23 27 29 30 24 31 37 36 37 34 31 29 27 25
Wind_Direction
322 325 325 326 325 325 326 327 327 328 327 325 324 323 321 318 316 313 311 309 307 305 304 302 300 297 295
323 325 325 325 325 325 326 327 327 328 326 325 324 324 322 319 316 313 311 308 306 304 302 301 298 296 294
322 325 325 327 327 327 327 327 327 327 327 325 325 323 321 320 318 315 312 310 307 305 302 300 297 295 293
322 324 326 328 327 326 325 327 326 327 326 325 324 323 322 321 319 317 315 311 308 305 302 299 297 294 292
323 324 326 326 325 327 324 326 325 326 326 327 326 325 324 323 320 318 317 314 312 311 309 305 302 300 296
324 323 324 326 327 326 325 325 324 330 326 324 327 325 325 323 322 320 318 318 318 315 311 307 304 302 298
323 324 325 327 327 325 325 324 323 326 326 323 327 324 325 325 324 322 322 322 321 318 315 310 305 303 300
329 328 326 327 326 326 326 325 325 325 327 323 326 324 326 326 325 327 328 326 322 319 316 313 308 305 302
331 331 330 329 329 328 327 326 324 326 327 324 327 326 328 328 331 331 329 327 322 319 318 316 313 309 306
335 335 336 334 332 330 328 325 325 325 330 328 329 333 331 334 331 327 329 326 323 319 320 321 319 318 312
337 337 337 336 335 334 332 329 326 323 326 328 331 332 332 328 327 324 323 323 324 325 327 328 321 317 313
339 339 339 338 338 336 334 331 328 323 326 327 328 330 329 328 326 321 320 323 326 328 329 325 322 314 308
339 339 340 340 339 339 339 340 336 334 333 328 325 331 332 330 328 322 319 320 325 333 329 329 321 315 300
339 340 343 343 342 342 340 340 342 342 346 345 338 336 335 333 330 325 323 323 318 326 329 321 318 296 288
339 340 341 341 342 344 344 344 340 340 340 342 343 341 338 335 332 330 325 321 320 322 316 304 292 284 285
339 340 340 340 341 343 345 345 342 341 341 344 344 343 345 343 340 336 326 316 313 317 310 295 286 286 286
338 337 337 338 338 339 340 341 341 341 339 339 341 344 342 340 338 342 327 308 301 308 296 289 279 280 283